Weather in Pune

India     18°31′45″N   73°50′37″E
В апреле 2022 года жителям России запретили посещать сайт meteo.paraplan.net по решению Генеральной прокуратуры. Аудитория сайта уменьшилась в 10 раз. Владельцы сайта не видят смысла в поддержке погодного сервера в таких условиях. Сайт будет закрыт в октябре.
temp.,
°C
wind,
m/s
gust,
m/s
humid.,
%
clouds,
%
prec.,
mm/h
press.,
hPa
HPBL,
m
30 september, fri
fri3023:30+21w229337 4.8 101042
02:30+21w119144 0.6 100924
05:30+21w118989 0.9 100912
08:30+24nw1180100 0.0 1011226
11:30+28n22638 0.4 10101171
14:30+28nw336067 2.1 10071325
17:30+25wnw347986 5.7 1007227
20:30+23w228467 3.2 100924
1 october, sat
sat123:30+22sw118843 4.9 101014
02:30+22wnw11845 0.5 100812
05:30+21w118529 0.9 100913
08:30+24w237742 0.3 1011245
11:30+24wnw338196 1.7 1011359
14:30+25wnw227695 0.9 1008530
17:30+23w349092 5.1 1008120
20:30+21wsw349471 6.6 1010108
2 october, sun
sun223:30+21wsw349795 11.7 1010154
02:30+21sw3496100 4.4 1009161
05:30+21sw2396100 11.4 1010121
08:30+21wsw2397100 7.1 1012141
11:30+23w238761 7.4 1011374
14:30+25w447744 1.8 1008919
17:30+23w348861 4.6 1009413
20:30+21wsw2395100 0.8 1011153
3 october, mon
mon323:30+21wsw229489 1.3 101165
02:30+20ssw119485 0.3 101040
05:30+20w119185 0.4 101030
08:30+22wnw117611 0.0 1012245
11:30+26nw22648 0.0 1011949
14:30+26wnw336847 1.7 1008992
17:30+24wnw34837 4.4 1009452
20:30+21w229497 4.6 101149
4 october, tue
tue423:30+21w2289100 5.8 101127
02:30+21wnw228993 0.0 100927
05:30+20nw1190100 0.0 100914
08:30+23wnw0182100 0.1 1011173
11:30+27nne3460100 0.4 10101243
14:30+29nne4648100 0.3 10072292
17:30+24wnw4677100 0.6 1007182
20:30+22w2282100 0.1 100945